Marshalltown, IA

3:53 AM CDT on April 26, 2017 (GMT -0500)
Marshalltown Municipal

Weather History for KMIW - September, 2013

Change the Weather History Date:

Monday, September 30, 2013

  Actual Average Record
Temperature  
Mean Temperature 63 °F 56 °F  
Max Temperature 77 °F 69 °F 89 °F (2002)
Min Temperature 48 °F 44 °F 28 °F (2003)
Degree Days  
Heating Degree Days 2 9  
Month to date heating degree days 79 137  
Since 1 July heating degree days 100 160  
Cooling Degree Days 0 1  
Month to date cooling degree days 144 62  
Year to date cooling degree days 856 718  
Growing Degree Days 12 (Base 50)    
Moisture  
Dew Point 49 °F    
Average Humidity 65    
Maximum Humidity 93    
Minimum Humidity 36    
Precipitation  
Precipitation 0.00 in 0.10 in 0.30 in (2007)
Month to date precipitation 1.68 3.37  
Sea Level Pressure  
Sea Level Pressure 29.84 in    
Wind  
Wind Speed 12 mph (South)    
Max Wind Speed 22 mph    
Max Gust Speed 29 mph    
Visibility 10 miles    
Events      
T = Trace of Precipitation, MM = Missing Value Source: NWS Daily Summary

Daily Weather History Graph

Daily Weather History Graph

Search for Another Location

Airport or City:

Trip Planner

Search our weather history database for the weather conditions in past years. The results will help you decide how hot, cold, wet, or windy it might be!

Date:

Astronomy

Sep. 30, 2013 Rise Set
Actual Time 7:07 AM CDT 6:54 PM CDT
Civil Twilight 6:39 AM CDT 7:22 PM CDT
Nautical Twilight 6:07 AM CDT 7:54 PM CDT
Astronomical Twilight 5:34 AM CDT 8:27 PM CDT
Moon 2:41 AM CDT (9/30) 4:28 PM CDT (9/30)
Length of Visible Light 12h 42m
Length of Day
11h 46m
Waning Crescent, 19% of the Moon is Illuminated
Sep 30
Waning Crescent
Oct 4
New
Oct 11
First Quarter
Oct 18
Full
Oct 26
Last Quarter

Hourly Weather History & Observations

Time (CDT) Temp. Dew Point Humidity Pressure Visibility Wind Dir Wind Speed Gust Speed Precip Events Conditions
12:53 AM 53.1 °F 46.0 °F 77% 29.94 in 10.0 mi South 4.6 mph - N/A   Clear
1:53 AM 52.0 °F 46.0 °F 80% 29.92 in 10.0 mi SSE 6.9 mph - N/A   Clear
2:53 AM 52.0 °F 46.0 °F 80% 29.91 in 10.0 mi SSE 8.1 mph - N/A   Clear
3:53 AM 51.1 °F 46.0 °F 83% 29.91 in 10.0 mi SSE 6.9 mph - N/A   Clear
4:53 AM 51.1 °F 46.9 °F 86% 29.88 in 10.0 mi South 9.2 mph - N/A   Clear
5:53 AM 48.9 °F 46.0 °F 90% 29.90 in 10.0 mi SSE 3.5 mph - N/A   Clear
6:53 AM 50.0 °F 46.9 °F 89% 29.90 in 10.0 mi SSE 6.9 mph - N/A   Clear
7:53 AM 51.1 °F 48.0 °F 89% 29.89 in 10.0 mi SSE 8.1 mph - N/A   Clear
8:53 AM 57.0 °F 48.9 °F 74% 29.89 in 10.0 mi South 6.9 mph - N/A   Clear
9:53 AM 62.1 °F 50.0 °F 65% 29.88 in 10.0 mi South 12.7 mph - N/A   Clear
10:53 AM 66.9 °F 51.1 °F 57% 29.87 in 10.0 mi South 17.3 mph 23.0 mph N/A   Clear
11:53 AM 70.0 °F 52.0 °F 53% 29.86 in 10.0 mi South 15.0 mph 20.7 mph N/A   Clear
12:53 PM 71.1 °F 50.0 °F 47% 29.84 in 10.0 mi South 18.4 mph 23.0 mph N/A   Clear
1:53 PM 73.9 °F 48.9 °F 41% 29.81 in 10.0 mi South 19.6 mph 25.3 mph N/A   Clear
2:53 PM 75.9 °F 48.0 °F 37% 29.79 in 10.0 mi South 17.3 mph 28.8 mph N/A   Clear
3:53 PM 75.9 °F 46.9 °F 36% 29.77 in 10.0 mi South 20.7 mph 26.5 mph N/A   Clear
4:53 PM 75.9 °F 46.9 °F 36% 29.75 in 10.0 mi South 18.4 mph 28.8 mph N/A   Clear
5:53 PM 73.0 °F 48.0 °F 41% 29.74 in 10.0 mi South 13.8 mph 24.2 mph N/A   Clear
6:53 PM 70.0 °F 48.9 °F 47% 29.75 in 10.0 mi South 12.7 mph - N/A   Clear
7:53 PM 66.0 °F 50.0 °F 56% 29.76 in 10.0 mi South 9.2 mph - N/A   Clear
8:53 PM 64.9 °F 51.1 °F 61% 29.78 in 10.0 mi South 9.2 mph - N/A   Clear
9:53 PM 64.9 °F 53.1 °F 65% 29.78 in 10.0 mi South 9.2 mph - N/A   Clear
10:53 PM 64.0 °F 55.9 °F 75% 29.79 in 10.0 mi South 9.2 mph - N/A   Clear
11:53 PM 63.0 °F 57.0 °F 81% 29.79 in 10.0 mi South 10.4 mph - N/A   Clear